METEOSAT-9 (MSG-2)

Last updated on Mon Feb 10 2025 00:02:21 GMT+0000 (Coordinated Universal Time)

1 28912U 05049B 25040.19332935 .00000113 00000+0 00000+0 0 9999 2 28912 8.2340 58.8105 0000582 222.4623 333.5361 1.00275891 2069
UTC large
Height (km)
Speed (km/s)
/
Latitude / Longitude
Inclination (degrees)
Orbital Period (minutes)
Azimuth
Elevation
Range (km)
Doppler Factor

Next 0 passes for location: London (51.5072 / 0.1276)

Sorry there are no passes over London.